STARLINK-36299

Last updated on Sun Apr 12 2026 00:02:09 GMT+0000 (Coordinated Universal Time)

1 68534U 26068AC 26101.50002315 .00079382 00000+0 40285-3 0 9994 2 68534 53.1597 344.6689 0001017 101.0456 131.4608 15.80828974 3035
UTC large
Height (km)
Speed (km/s)
/
Latitude / Longitude
Inclination (degrees)
Orbital Period (minutes)
Azimuth
Elevation
Range (km)
Doppler Factor

Next 0 passes for location: London (51.5072 / 0.1276)

Sorry there are no passes over London.
STARLINK-36299